Time,TemperatureF,DewpointF,PressureIn,WindDirection,WindDirectionDegrees,WindSpeedMPH,WindSpeedGustMPH,Humidity,HourlyPrecipIn,Conditions,Clouds,dailyrainin,SoftwareType,DateUTC
2017-11-23 00:05:00,27.0,24.0,30.00,West,270,1.0,-999.0,90,0.00,,,0.00,,2017-11-23 06:05:00,
2017-11-23 00:10:00,27.0,24.0,29.99,SSW,203,3.0,-999.0,88,0.00,,,0.00,,2017-11-23 06:10:00,
2017-11-23 00:16:00,27.0,24.0,29.98,South,180,2.0,-999.0,88,0.00,,,0.00,,2017-11-23 06:16:00,
2017-11-23 00:22:00,27.0,24.0,29.98,WNW,293,0.0,-999.0,88,0.00,,,0.00,,2017-11-23 06:22:00,
2017-11-23 00:27:00,27.1,24.0,29.97,WSW,248,3.0,-999.0,88,0.00,,,0.00,,2017-11-23 06:27:00,
2017-11-23 00:33:00,27.1,24.0,29.97,SSW,203,2.0,-999.0,88,0.00,,,0.00,,2017-11-23 06:33:00,
2017-11-23 00:38:00,27.3,24.0,29.98,West,270,3.0,-999.0,88,0.00,,,0.00,,2017-11-23 06:38:00,
2017-11-23 00:44:00,27.5,24.0,29.97,SW,225,2.0,-999.0,88,0.00,,,0.00,,2017-11-23 06:44:00,
2017-11-23 00:49:00,27.6,24.0,29.97,SSW,203,2.0,-999.0,88,0.00,,,0.00,,2017-11-23 06:49:00,
2017-11-23 00:55:00,27.6,24.0,29.97,West,270,2.0,-999.0,88,0.00,,,0.00,,2017-11-23 06:55:00,
2017-11-23 01:01:00,27.8,24.0,29.96,SW,225,2.0,-999.0,86,0.00,,,0.00,,2017-11-23 07:01:00,
2017-11-23 01:06:00,27.9,24.0,29.96,NW,315,2.0,-999.0,86,0.00,,,0.00,,2017-11-23 07:06:00,
2017-11-23 01:12:00,27.9,23.0,29.96,WSW,248,2.0,-999.0,83,0.00,,,0.00,,2017-11-23 07:12:00,
2017-11-23 01:18:00,28.2,23.0,29.95,West,270,2.0,-999.0,83,0.00,,,0.00,,2017-11-23 07:18:00,
2017-11-23 01:23:00,28.2,23.0,29.95,SSW,203,2.0,-999.0,83,0.00,,,0.00,,2017-11-23 07:23:00,
2017-11-23 01:35:00,28.6,24.0,29.94,ESE,113,1.0,-999.0,83,0.00,,,0.00,,2017-11-23 07:35:00,
2017-11-23 01:36:00,28.6,24.0,29.94,WNW,293,0.0,-999.0,83,0.00,,,0.00,,2017-11-23 07:36:00,
2017-11-23 01:41:00,28.6,24.0,29.93,ESE,113,2.0,-999.0,83,0.00,,,0.00,,2017-11-23 07:41:00,
2017-11-23 01:52:00,28.8,23.0,29.92,SW,225,0.0,-999.0,80,0.00,,,0.00,,2017-11-23 07:52:00,
2017-11-23 01:59:00,29.1,23.0,29.92,South,180,1.0,-999.0,79,0.00,,,0.00,,2017-11-23 07:59:00,
2017-11-23 02:05:00,29.1,23.0,29.92,ESE,113,2.0,-999.0,79,0.00,,,0.00,,2017-11-23 08:05:00,
2017-11-23 02:10:00,29.1,23.0,29.92,NW,315,0.0,-999.0,78,0.00,,,0.00,,2017-11-23 08:10:00,
2017-11-23 02:16:00,29.2,22.0,29.92,South,180,1.0,-999.0,76,0.00,,,0.00,,2017-11-23 08:16:00,
2017-11-23 02:21:00,29.2,22.0,29.91,ESE,113,1.0,-999.0,76,0.00,,,0.00,,2017-11-23 08:21:00,
2017-11-23 02:32:00,29.5,22.0,29.92,WNW,293,2.0,-999.0,75,0.00,,,0.00,,2017-11-23 08:32:00,
2017-11-23 02:39:00,29.6,23.0,29.92,SE,135,1.0,-999.0,75,0.00,,,0.00,,2017-11-23 08:39:00,
2017-11-23 02:52:00,29.6,22.0,29.92,West,270,2.0,-999.0,75,0.00,,,0.00,,2017-11-23 08:52:00,
2017-11-23 03:16:00,30.0,22.0,29.91,West,270,1.0,-999.0,73,0.00,,,0.00,,2017-11-23 09:16:00,
2017-11-23 03:21:00,30.0,22.0,29.91,WSW,248,2.0,-999.0,73,0.00,,,0.00,,2017-11-23 09:21:00,
2017-11-23 03:27:00,30.0,22.0,29.91,South,180,1.0,-999.0,73,0.00,,,0.00,,2017-11-23 09:27:00,
2017-11-23 03:37:00,30.0,22.0,29.91,SW,225,2.0,-999.0,73,0.00,,,0.00,,2017-11-23 09:37:00,
2017-11-23 03:42:00,30.1,22.0,29.91,WNW,293,2.0,-999.0,73,0.00,,,0.00,,2017-11-23 09:42:00,
2017-11-23 03:48:00,30.1,22.0,29.92,West,270,1.0,-999.0,71,0.00,,,0.00,,2017-11-23 09:48:00,
2017-11-23 03:53:00,30.1,22.0,29.91,SSW,203,2.0,-999.0,71,0.00,,,0.00,,2017-11-23 09:53:00,
2017-11-23 03:59:00,30.1,21.0,29.91,West,270,2.0,-999.0,70,0.00,,,0.00,,2017-11-23 09:59:00,
2017-11-23 04:04:00,30.1,21.0,29.91,West,270,2.0,-999.0,70,0.00,,,0.00,,2017-11-23 10:04:00,
2017-11-23 04:10:00,30.1,21.0,29.90,SSW,203,1.0,-999.0,70,0.00,,,0.00,,2017-11-23 10:10:00,
2017-11-23 04:16:00,30.1,21.0,29.90,West,270,1.0,-999.0,70,0.00,,,0.00,,2017-11-23 10:16:00,
2017-11-23 04:21:00,30.1,21.0,29.90,West,270,1.0,-999.0,70,0.00,,,0.00,,2017-11-23 10:21:00,
2017-11-23 04:28:00,30.1,21.0,29.89,SSW,203,1.0,-999.0,70,0.00,,,0.00,,2017-11-23 10:28:00,
2017-11-23 04:41:00,30.1,21.0,29.89,SW,225,2.0,-999.0,70,0.00,,,0.00,,2017-11-23 10:41:00,
2017-11-23 04:47:00,30.1,21.0,29.89,WSW,248,2.0,-999.0,70,0.00,,,0.00,,2017-11-23 10:47:00,
2017-11-23 04:53:00,30.1,21.0,29.89,ESE,113,1.0,-999.0,70,0.00,,,0.00,,2017-11-23 10:53:00,
2017-11-23 05:01:00,30.1,21.0,29.89,West,270,2.0,-999.0,70,0.00,,,0.00,,2017-11-23 11:01:00,
2017-11-23 05:07:00,29.6,21.0,29.89,SSW,203,2.0,-999.0,70,0.00,,,0.00,,2017-11-23 11:07:00,
2017-11-23 05:19:00,28.7,21.0,29.88,SW,225,2.0,-999.0,73,0.00,,,0.00,,2017-11-23 11:19:00,
2017-11-23 05:26:00,28.7,21.0,29.88,West,270,1.0,-999.0,73,0.00,,,0.00,,2017-11-23 11:26:00,
2017-11-23 05:32:00,28.3,21.0,29.88,West,270,1.0,-999.0,74,0.00,,,0.00,,2017-11-23 11:32:00,
2017-11-23 05:44:00,27.9,21.0,29.89,West,270,1.0,-999.0,75,0.00,,,0.00,,2017-11-23 11:44:00,
2017-11-23 05:50:00,27.8,21.0,29.88,WSW,248,2.0,-999.0,75,0.00,,,0.00,,2017-11-23 11:50:00,
2017-11-23 05:55:00,27.8,21.0,29.89,WSW,248,1.0,-999.0,75,0.00,,,0.00,,2017-11-23 11:55:00,
2017-11-23 06:01:00,27.8,21.0,29.88,SW,225,2.0,-999.0,75,0.00,,,0.00,,2017-11-23 12:01:00,